Weather History for Farmington, MO

Change the Weather History Date:

Thursday, April 25, 2013

  Actual Average Record
Temperature  
Mean Temperature 48 °F -  
Max Temperature 66 °F 66 °F 78 °F (2012)
Min Temperature 30 °F 46 °F 30 °F (2013)
Degree Days  
Heating Degree Days 17    
Moisture  
Dew Point 33 °F    
Average Humidity 55    
Maximum Humidity 87    
Minimum Humidity 30    
Precipitation  
Precipitation 0.00 in - - ()
Sea Level Pressure  
Sea Level Pressure 30.32 in    
Wind  
Wind Speed 4 mph (West)    
Max Wind Speed 15 mph    
Max Gust Speed 23 mph    
Visibility 10 miles    
Events      
Averages and records for this station are not official NWS values.
T = Trace of Precipitation, MM = Missing Value Source: NWS Daily Summary

Daily Weather History Graph

Daily Weather History Graph

Search for Another Location

Airport:

Trip Planner

Search our weather history database for the weather conditions in past years. The results will help you decide how hot, cold, wet, or windy it might be!

Date:

Astronomy

Apr. 25, 2013 Rise Set
Actual Time 6:12 AM CDT 7:46 PM CDT
Civil Twilight 5:45 AM CDT 8:14 PM CDT
Nautical Twilight 5:11 AM CDT 8:48 PM CDT
Astronomical Twilight 4:36 AM CDT 9:23 PM CDT
Moon 7:59 PM CDT 5:55 AM CDT
Length of Visible Light 14h 29m
Length of Day
13h 33m
Full, 100% of the Moon is Illuminated
Apr 25
Full
Apr 25
Full
May 2
Last Quarter
May 9
New
May 17
First Quarter

Hourly Weather History & Observations

Time (CDT) Temp. Windchill Dew Point Humidity Pressure Visibility Wind Dir Wind Speed Gust Speed Precip Events Conditions
12:15 AM 37.4 °F - 32.0 °F 81% 30.28 in 10.0 mi Calm Calm - N/A   Clear
12:35 AM 35.6 °F - 32.0 °F 87% 30.28 in 10.0 mi Calm Calm - N/A   Clear
12:55 AM 35.6 °F - 32.0 °F 87% 30.29 in 10.0 mi Calm Calm - N/A   Clear
1:15 AM 33.8 °F - 30.2 °F 87% 30.29 in 10.0 mi Calm Calm - N/A   Clear
1:35 AM 33.8 °F - 30.2 °F 87% 30.29 in 10.0 mi Calm Calm - N/A   Clear
1:55 AM 33.8 °F - 30.2 °F 87% 30.29 in 10.0 mi Calm Calm - N/A   Clear
2:15 AM 35.6 °F - 30.2 °F 81% 30.29 in 10.0 mi Calm Calm - N/A   Clear
2:35 AM 35.6 °F - 30.2 °F 81% 30.28 in 10.0 mi Calm Calm - N/A   Clear
2:55 AM 33.8 °F - 28.4 °F 81% 30.28 in 10.0 mi Calm Calm - N/A   Clear
3:15 AM 37.4 °F 34.9 °F 28.4 °F 70% 30.29 in 10.0 mi West 3.5 mph - N/A   Clear
3:35 AM 37.4 °F 33.8 °F 26.6 °F 65% 30.29 in 10.0 mi SW 4.6 mph - N/A   Clear
3:55 AM 33.8 °F - 28.4 °F 81% 30.28 in 10.0 mi Calm Calm - N/A   Clear
4:15 AM 37.4 °F 34.9 °F 26.6 °F 65% 30.28 in 10.0 mi South 3.5 mph - N/A   Clear
4:35 AM 35.6 °F 32.8 °F 24.8 °F 65% 30.28 in 10.0 mi South 3.5 mph - N/A   Clear
4:55 AM 33.8 °F - 26.6 °F 75% 30.28 in 10.0 mi Calm Calm - N/A   Clear
5:15 AM 33.8 °F - 28.4 °F 81% 30.29 in 10.0 mi Calm Calm - N/A   Clear
5:35 AM 33.8 °F - 26.6 °F 75% 30.29 in 10.0 mi Calm Calm - N/A   Clear
5:55 AM 33.8 °F - 26.6 °F 75% 30.29 in 10.0 mi Calm Calm - N/A   Clear
6:15 AM 32.0 °F 26.4 °F 26.6 °F 80% 30.29 in 10.0 mi South 5.8 mph - N/A   Clear
6:35 AM 30.2 °F 26.7 °F 26.6 °F 86% 30.30 in 10.0 mi SSW 3.5 mph - N/A   Clear
6:55 AM 32.0 °F - 28.4 °F 87% 30.31 in 10.0 mi Calm Calm - N/A   Clear
7:15 AM 33.8 °F 30.8 °F 30.2 °F 87% 30.32 in 10.0 mi South 3.5 mph - N/A   Clear
7:35 AM 37.4 °F 34.9 °F 30.2 °F 75% 30.33 in 10.0 mi South 3.5 mph - N/A   Clear
7:55 AM 39.2 °F - 32.0 °F 75% 30.34 in 10.0 mi Calm Calm - N/A   Clear
8:15 AM 44.6 °F 41.4 °F 33.8 °F 66% 30.34 in 10.0 mi West 5.8 mph - N/A   Clear
8:35 AM 48.2 °F - 30.2 °F 50% 30.35 in 10.0 mi West 11.5 mph - N/A   Clear
8:55 AM 50.0 °F - 30.2 °F 47% 30.35 in 10.0 mi WNW 12.7 mph 19.6 mph N/A   Clear
9:15 AM 51.8 °F - 30.2 °F 44% 30.36 in 10.0 mi West 11.5 mph 18.4 mph N/A   Clear
9:35 AM 51.8 °F - 30.2 °F 44% 30.36 in 10.0 mi WNW 9.2 mph 16.1 mph N/A   Clear
9:55 AM 53.6 °F - 30.2 °F 41% 30.36 in 10.0 mi WNW 12.7 mph 23.0 mph N/A   Clear
10:15 AM 53.6 °F - 32.0 °F 44% 30.37 in 10.0 mi West 11.5 mph - N/A   Clear
10:35 AM 53.6 °F - 33.8 °F 47% 30.37 in 10.0 mi NW 15.0 mph 19.6 mph N/A   Clear
10:55 AM 55.4 °F - 33.8 °F 44% 30.36 in 10.0 mi WNW 15.0 mph 20.7 mph N/A   Clear
11:15 AM 55.4 °F - 33.8 °F 44% 30.37 in 10.0 mi WNW 15.0 mph 20.7 mph N/A   Clear
11:35 AM 57.2 °F - 33.8 °F 41% 30.37 in 10.0 mi West 8.1 mph 17.3 mph N/A   Clear
11:55 AM 57.2 °F - 35.6 °F 44% 30.36 in 10.0 mi WNW 11.5 mph - N/A   Clear
12:15 PM 57.2 °F - 33.8 °F 41% 30.35 in 10.0 mi WSW 6.9 mph 17.3 mph N/A   Clear
12:35 PM 59.0 °F - 35.6 °F 42% 30.35 in 10.0 mi WNW 9.2 mph - N/A   Clear
12:55 PM 60.8 °F - 37.4 °F 42% 30.35 in 10.0 mi WNW 9.2 mph 18.4 mph N/A   Clear
1:15 PM 60.8 °F - 35.6 °F 39% 30.35 in 10.0 mi NNW 6.9 mph - N/A   Clear
1:35 PM 60.8 °F - 35.6 °F 39% 30.34 in 10.0 mi WSW 9.2 mph 16.1 mph N/A   Clear
1:55 PM 62.6 °F - 35.6 °F 37% 30.34 in 10.0 mi WNW 6.9 mph - N/A   Partly Cloudy
2:15 PM 62.6 °F - 35.6 °F 37% 30.34 in 10.0 mi West 8.1 mph - N/A   Partly Cloudy
2:35 PM 62.6 °F - 35.6 °F 37% 30.34 in 10.0 mi WNW 11.5 mph 17.3 mph N/A   Clear
2:55 PM 64.4 °F - 35.6 °F 34% 30.33 in 10.0 mi SW 9.2 mph - N/A   Partly Cloudy
3:15 PM 64.4 °F - 33.8 °F 32% 30.32 in 10.0 mi WSW 5.8 mph - N/A   Partly Cloudy
3:35 PM 64.4 °F - 33.8 °F 32% 30.31 in 10.0 mi West 12.7 mph 17.3 mph N/A   Partly Cloudy
3:55 PM 64.4 °F - 33.8 °F 32% 30.30 in 10.0 mi West 10.4 mph - N/A   Clear
4:15 PM 64.4 °F - 35.6 °F 34% 30.30 in 10.0 mi North 3.5 mph - N/A   Clear
4:35 PM 66.2 °F - 35.6 °F 32% 30.30 in 10.0 mi WNW 6.9 mph - N/A   Partly Cloudy
4:55 PM 64.4 °F - 33.8 °F 32% 30.30 in 10.0 mi NNW 9.2 mph - N/A   Partly Cloudy
5:15 PM 64.4 °F - 33.8 °F 32% 30.30 in 10.0 mi NNW 8.1 mph - N/A   Clear
5:35 PM 64.4 °F - 32.0 °F 30% 30.30 in 10.0 mi NNW 6.9 mph - N/A   Clear
5:55 PM 64.4 °F - 32.0 °F 30% 30.30 in 10.0 mi WNW 4.6 mph - N/A   Clear
6:15 PM 64.4 °F - 32.0 °F 30% 30.30 in 10.0 mi Calm Calm - N/A   Clear
6:35 PM 64.4 °F - 32.0 °F 30% 30.30 in 10.0 mi Calm Calm - N/A   Clear
6:55 PM 64.4 °F - 35.6 °F 34% 30.30 in 10.0 mi North 3.5 mph - N/A   Clear
7:15 PM 64.4 °F - 32.0 °F 30% 30.30 in 10.0 mi NNE 3.5 mph - N/A   Clear
7:35 PM 57.2 °F - 35.6 °F 44% 30.30 in 10.0 mi ENE 6.9 mph - N/A   Clear
7:55 PM 55.4 °F - 35.6 °F 47% 30.31 in 10.0 mi East 6.9 mph - N/A   Clear
8:15 PM 53.6 °F - 35.6 °F 51% 30.31 in 10.0 mi East 5.8 mph - N/A   Clear
8:35 PM 53.6 °F - 35.6 °F 51% 30.31 in 10.0 mi East 5.8 mph - N/A   Clear
8:55 PM 53.6 °F - 35.6 °F 51% 30.32 in 10.0 mi ESE 5.8 mph - N/A   Clear
9:15 PM 51.8 °F - 35.6 °F 54% 30.32 in 10.0 mi East 5.8 mph - N/A   Clear
9:35 PM 51.8 °F - 35.6 °F 54% 30.33 in 10.0 mi East 4.6 mph - N/A   Clear
9:55 PM 50.0 °F - 35.6 °F 58% 30.33 in 10.0 mi ESE 5.8 mph - N/A   Clear
10:15 PM 51.8 °F - 35.6 °F 54% 30.33 in 10.0 mi ESE 5.8 mph - N/A   Clear
10:35 PM 50.0 °F - 35.6 °F 58% 30.34 in 10.0 mi ESE 5.8 mph - N/A   Clear
10:55 PM 51.8 °F - 37.4 °F 58% 30.33 in 10.0 mi SE 4.6 mph - N/A   Clear
11:15 PM 51.8 °F - 37.4 °F 58% 30.33 in 10.0 mi SSE 6.9 mph - N/A   Clear
11:35 PM 51.8 °F - 37.4 °F 58% 30.33 in 10.0 mi SSE 5.8 mph - N/A   Clear
11:55 PM 51.8 °F - 39.2 °F 62% 30.33 in 10.0 mi SSE 6.9 mph - N/A   Clear